Location: Lombard
(41.8800°N, 88.0080°W)
Time: 00:06:17
(UTC-05:00)

Tiros 1 - Pass Details

Date: 28 January 2023
Orbit: 628 x 662 km, 48.4° (Epoch: 20 March)

Event Time Altitude Azimuth Distance (km) Brightness Sun altitude
Rises 01:56:26 0° 220° (SW) 2,902 - -56.5°
Reaches altitude 10° 01:58:49 10° 214° (SSW) 2,001 - -56.1°
Maximum altitude 02:03:11 44° 142° (SE) 882 - -55.5°
Drops below altitude 10° 02:07:36 10° 71° (ENE) 2,028 - -54.8°
Sets 02:10:02 0° 65° (ENE) 2,946 - -54.4°
